< < Back
Terminal Aerodrome Forecast


Current Version              Previous Versions:   1  2  3  4  5  6  7  8  9  

Terminal Aerodrome Forecast

569
FTUS44 KMRX 251120
TAFTYS
TAF
KTYS 251120Z 2512/2612 21003KT P6SM SCT250
     FM251500 22004KT P6SM SCT050 BKN200
     FM252100 25006KT P6SM VCTS BKN050CB
     FM260400 VRB04KT P6SM SCT050 SCT250=

Latest METAR

449
SAUS80 KWBC 261600
MTRTYS
METAR KTYS 261553Z 24007KT 10SM FEW036 BKN160 OVC200 30/22 A3007 RMK AO2
SLP170 T03000222


USA.gov is the U.S. government's official web portal to all federal, state and local government web resources and services.